Regional Weather Roundup
Issued by NWS

Home | Current Version | Previous Version | Text Only | Print | Product List | Glossary Off
Versions: 1 2 3 4 5 6 7 8 9 10 11 12 13 14 15 16 17 18 19 20 21 22 23 24 25 26 27 28 29 30 31 32 33 34 35 36 37 38 39 40 41 42 43 44 45 46 47 48 49 50

000
ASUS45 KBOU 221207
RWRCO

WEATHER ROUNDUP FOR COLORADO
NATIONAL WEATHER SERVICE DENVER/BOULDER CO
600 AM MDT FRI MAY 22 2015

NOTE: "FAIR" INDICATES FEW OR NO CLOUDS BELOW 12000 FEET WITH NO
SIGNIFICANT WEATHER AND/OR OBSTRUCTIONS TO VISIBILITY.

COZ001>005-013-030-031-221300-
...NORTHWEST COLORADO...

CITY           SKY/WX    TMP DP  RH WIND       PRES   REMARKS
CRAIG          CLOUDY    47  41  80 NE3       29.99S
HAYDEN         CLOUDY    43  37  81 SE7       29.99S
MEEKER         LGT RAIN  46  42  86 CALM      30.01R
MOUNT WERNER   NOT AVBL
STEAMBOAT SPGS CLOUDY    41  40  96 CALM      30.00S
WALDEN         CLOUDY    37  36  93 CALM      29.98F
$$

COZ006>008-011-221300-
...WEST CENTRAL VALLEYS...

CITY           SKY/WX    TMP DP  RH WIND       PRES   REMARKS
GRAND JUNCTION CLOUDY    48  46  93 SE7       29.97R
MONTROSE       CLOUDY    46  43  89 S6        30.03S
EAGLE          CLOUDY    41  39  93 NE5       30.08S
RIFLE          LGT RAIN  46  42  86 NE8       30.03R
DELTA          CLOUDY    50  47  88 NE5       30.00S
NUCLA          CLOUDY    43  39  87 E3        30.04S
$$

COZ017>023-064>068-221300-
...SOUTHWEST COLORADO...

CITY           SKY/WX    TMP DP  RH WIND       PRES   REMARKS
DURANGO        PTCLDY    39  38  96 CALM      30.08R
CORTEZ         CLEAR     50  37  61 S6        30.02R
PAGOSA SPRINGS PTCLDY    34  34 100 CALM      30.12F
TELLURIDE      CLOUDY    37  32  83 NE3       30.13S
WOLF CREEK PAS NOT AVBL
$$

COZ009-010-012-014-032>034-037-058>063-221300-
...CENTRAL COLORADO...

CITY           SKY/WX    TMP DP  RH WIND       PRES   REMARKS
ASPEN          CLOUDY    40  37  89 S5        30.07R
BUENA VISTA    CLOUDY    38  36  92 CALM      30.05F
COPPER MTN     SNOW      34  30  86 W15       30.16R VSB<1/4 WCI  24
BERTHOUD PASS  SNOW      27  19  74 NW7       30.17F VSB<1/4 WCI  19
COTTONWOOD PAS CLOUDY    37  32  81 NW15G40   30.08F
GUNNISON       CLOUDY    39  34  81 CALM      30.10R
KREMMLING      CLOUDY    41  36  81 CALM      30.04S
LEADVILLE      LGT SNOW  32  32 100 S5        30.10R FOG     WCI  27
SALIDA         CLOUDY    41  39  95 CALM      30.13R
SUNLIGHT       SNOW      32  32 100 SW3       30.16S VSB 1/2
WILKERSON PASS LGT SNOW  30  30 100 SW10G17   30.14F VSB 3/4 WCI  21
$$

COZ069>075-221300-
...SAN LUIS VALLEY/SANGRE DE CRISTO MOUNTAINS...

CITY           SKY/WX    TMP DP  RH WIND       PRES   REMARKS
ALAMOSA        CLOUDY    37  34  89 S3        30.08S
LA VETA PASS   CLOUDY   N/A N/A N/A MISG      30.07S
SAGUACHE       CLOUDY    41  37  87 S3        30.10R
$$

COZ035-036-038>040-221300-
...NORTHERN COLORADO FRONT RANGE...

CITY           SKY/WX    TMP DP  RH WIND       PRES   REMARKS
DENVER INTL AP LGT RAIN  46  44  93 E10       30.00S FOG
DMNS CITY PARK   N/A     47  45  94 E5        29.99S
AURORA         LGT RAIN  45  45 100 E6        30.00S
FRONT RANGE AP LGT RAIN  46  45  93 E10       30.01S
ERIE MUNI ARPT LGT RAIN  47  46  95 E6        30.00S
BOULDER MUN AP RAIN      46  46 100 CALM      29.99S
CENTENNIAL     LGT RAIN  45  44  97 S5        29.99S
BROOMFIELD     RAIN      46  45  93 NE3       30.00S
FORT COLLINS   CLOUDY    46  45  93 E10       30.02S
LONGMONT       DRIZZLE   49  47  93 E6        30.01F
$$

COZ041-046-047-076>085-087-088-221300-
...PIKES PEAK/PALMER DIVIDE AND SOUTHERN FOOTHILLS...

CITY           SKY/WX    TMP DP  RH WIND       PRES   REMARKS
COLO. SPRINGS  LGT RAIN  43  43 100 SE10      30.03S VSB 1
A. F. ACADEMY  RAIN      43  43 100 CALM      30.02S FOG
ELLICOTT       NOT AVBL
FALCON         LGT RAIN  41  41 100 SE10      30.05R
FORT CARSON    LGT RAIN  45 N/A N/A SE6       30.01S
LIMON          LGT RAIN  43  43 100 SE14      30.03F
MONUMENT HILL  NOT AVBL
TRINIDAD       PTCLDY    44  39  82 SW10      30.00S
$$

COZ042>045-048>051-090-091-221300-
...NORTHEAST COLORADO...

CITY           SKY/WX    TMP DP  RH WIND       PRES   REMARKS
GREELEY ARPT   CLOUDY    46  45  93 E10       30.02S
AKRON          RAIN      45  45 100 SE17G23   30.06S FOG
BURLINGTON     LGT RAIN  46  44  93 SE21G26   30.07F
WRAY           RAIN     N/A N/A N/A SE12      30.10S
STERLING       RAIN      46  46 100 SE10      30.06S
HOLYOKE        NOT AVBL
FORT MORGAN    LGT RAIN  46  44  93 E9        30.05S
$$

COZ086-089-092>099-221300-
...SOUTHEAST COLORADO...

CITY           SKY/WX    TMP DP  RH WIND       PRES   REMARKS
PUEBLO         CLOUDY    48  47  96 NE6       29.98S
LA JUNTA       CLOUDY    49  44  83 SE10      29.98F
LAMAR          CLOUDY    50  48  93 S17       30.02S
SPRINGFIELD      N/A     46  45  96 S23G31    30.05F
$$



USA.gov is the U.S. government's official web portal to all federal, state and local government web resources and services.